Theta_e
291 292 292 293 295 295 293 293 293 293 292 292 293 294 292 292 293 295 298 298 297 296 295 299 298 296 300 303 305 309 310 312 314 315 313 314 320 325
290 291 291 292 293 292 291 290 290 290 291 292 293 291 292 292 293 294 296 294 293 295 295 297 299 298 295 296 300 301 306 311 313 314 316 316 316 318
290 290 290 291 291 290 289 289 289 290 291 290 291 291 291 292 292 292 292 292 293 293 294 295 296 296 298 301 300 303 305 309 311 312 314 316 316 317
289 289 289 289 289 288 289 289 289 290 290 291 290 290 291 291 291 291 291 291 292 292 292 293 294 295 297 298 298 300 302 307 309 310 312 315 316 318
289 289 289 288 288 288 288 288 289 289 290 289 289 290 290 290 290 290 291 291 291 290 291 291 292 294 294 296 298 299 299 301 307 309 311 313 315 317
288 288 288 287 287 288 288 288 289 289 288 289 289 289 290 289 290 290 290 290 290 291 291 292 293 294 295 296 297 298 299 302 303 305 307 310 312 313
288 287 287 287 287 287 288 288 288 288 288 288 289 290 288 288 288 289 289 289 289 290 290 292 292 293 294 296 297 295 297 299 302 306 307 309 311 311
287 287 287 287 287 287 287 287 287 288 289 289 288 288 287 287 288 288 287 288 289 290 291 291 292 293 292 293 295 296 296 297 298 302 306 308 310 310
286 286 286 286 286 286 286 286 287 288 288 288 287 286 286 286 286 287 288 289 290 289 289 290 290 292 292 292 293 295 296 298 299 300 302 307 308 309
286 286 286 286 286 286 286 287 288 287 286 285 285 285 286 286 287 287 287 287 288 289 290 291 291 291 291 292 292 295 296 299 300 301 302 304 307 308
286 286 286 286 285 286 287 286 285 285 284 284 285 286 286 286 286 286 286 287 287 288 289 290 289 291 292 292 292 293 298 300 300 301 302 303 304 306
285 286 285 285 285 286 286 285 284 283 284 284 284 284 284 284 285 285 286 286 286 287 287 289 288 289 290 290 294 296 297 299 300 301 302 303 305 305
285 284 284 285 285 285 284 284 283 284 283 283 283 283 283 283 284 284 284 284 285 286 286 288 288 288 289 289 289 291 293 297 299 300 302 305 306 307
284 284 284 285 284 283 283 283 283 283 282 282 282 282 283 283 283 283 284 284 285 285 286 287 287 288 287 287 288 290 292 295 300 304 306 306 306 308
284 284 284 283 282 281 282 282 282 282 281 282 282 282 282 282 283 283 284 285 286 287 287 287 286 286 285 286 287 289 292 296 299 304 304 303 303 303
284 284 282 282 281 281 281 281 281 281 281 281 281 281 282 282 283 283 284 286 287 287 286 285 285 284 285 286 288 290 291 294 295 300 299 298 298 298
284 281 281 281 280 280 280 280 280 280 281 280 280 281 281 282 283 285 286 286 285 285 285 285 284 285 285 287 289 290 292 292 294 297 298 297 297 298
281 281 280 280 280 280 280 280 280 280 280 280 280 281 282 283 285 286 285 285 284 284 284 285 284 285 286 286 288 289 291 292 294 296 296 295 293 294
280 280 279 279 279 279 279 280 279 279 280 280 280 282 283 284 285 285 285 285 284 283 282 282 284 287 286 285 286 288 290 292 294 293 293 293 292 292
279 279 279 279 279 279 279 279 279 279 280 280 282 283 284 284 284 283 283 283 283 283 283 283 284 287 287 285 284 286 290 292 293 292 292 292 291 290
279 279 279 279 279 279 279 279 279 280 280 281 282 283 283 283 282 281 283 284 284 284 285 285 283 283 283 284 286 287 289 291 292 292 291 291 290 290
278 278 278 278 279 279 279 279 280 282 282 282 282 282 283 282 283 285 285 286 286 286 286 286 286 283 284 283 284 285 287 288 289 290 290 290 289 287
278 278 278 279 279 279 279 280 282 283 283 282 282 283 284 284 285 285 286 287 286 287 287 287 287 285 284 284 283 283 283 284 284 284 284 286 286 286
Wind_Speed
22 22 24 24 23 23 25 26 29 36 43 52 44 34 34 36 38 37 36 37 40 45 47 41 44 45 45 45 43 40 42 42 41 43 43 54 32 46
23 24 24 25 25 26 27 28 29 31 37 45 45 46 39 38 38 39 37 44 47 39 40 36 36 41 41 41 42 43 44 40 38 36 37 42 43 45
25 25 27 26 27 28 29 30 29 30 34 45 43 46 46 41 41 42 43 41 43 37 38 39 40 40 38 39 41 40 40 40 40 37 36 39 41 40
27 27 28 27 29 30 29 30 32 33 35 38 45 45 46 46 43 41 44 42 42 41 39 40 40 38 38 39 40 39 43 40 38 37 36 37 36 37
28 28 29 29 31 30 30 33 34 35 35 39 46 43 45 44 44 43 42 42 42 44 40 38 37 37 39 39 38 39 39 40 40 37 34 32 33 36
28 28 29 29 29 32 34 33 35 37 41 41 42 42 42 45 43 44 44 43 43 41 40 39 36 37 36 35 34 35 33 32 34 37 35 37 33 35
29 29 29 29 31 30 33 38 36 40 40 42 44 39 42 46 44 44 41 45 46 42 43 41 38 37 38 33 35 41 38 37 31 28 28 33 34 35
30 31 30 30 29 33 33 36 35 40 42 46 41 39 51 44 43 44 45 44 45 47 38 44 41 39 44 43 41 38 39 36 31 35 31 28 29 29
29 31 32 32 34 35 39 38 38 39 34 40 44 44 45 45 45 48 47 45 43 53 45 48 49 40 42 43 41 40 38 32 27 27 35 35 31 33
28 29 32 35 34 37 42 45 43 41 42 41 40 43 44 48 46 46 47 51 51 46 34 40 37 41 42 40 38 34 33 29 27 25 25 31 36 34
30 30 33 36 37 38 43 45 49 47 45 40 38 41 41 41 39 39 41 38 43 38 33 34 39 37 31 37 39 39 25 24 25 25 27 30 33 31
35 34 35 35 38 39 44 46 44 45 45 49 47 43 36 35 32 32 35 38 40 41 30 29 37 34 34 28 18 15 15 22 25 22 23 24 26 28
40 40 39 38 39 44 42 40 39 43 44 43 41 41 41 39 38 37 38 38 41 41 39 31 34 33 28 35 35 32 31 24 27 29 23 22 22 24
40 41 42 40 45 42 37 34 37 37 38 40 41 41 41 42 41 40 36 33 32 35 33 29 33 28 28 30 30 26 24 18 13 10 14 20 27 33
38 40 39 43 39 37 33 35 34 35 39 40 40 42 43 42 42 39 35 32 31 29 25 22 23 26 27 28 27 19 20 5 23 21 30 31 32 36
40 40 41 35 33 33 35 35 36 37 37 40 40 43 42 42 41 36 35 33 28 21 16 15 14 13 19 17 17 17 14 5 25 31 30 33 34 38
39 41 34 34 37 38 38 38 40 40 41 42 42 41 41 40 38 32 29 21 16 15 13 11 7 9 6 7 7 10 12 20 28 31 31 28 24 23
36 31 34 35 36 38 40 43 43 42 42 42 40 39 37 36 33 25 19 16 16 17 16 12 11 1 3 11 10 14 22 28 30 28 28 30 28 27
29 31 33 35 38 39 40 42 43 44 43 41 39 33 33 31 26 24 21 18 15 14 15 15 10 10 12 11 16 19 26 28 30 31 30 32 33 27
30 32 34 36 38 40 42 43 44 44 40 38 33 29 29 24 22 21 19 18 16 15 15 17 13 10 13 12 17 17 23 28 30 32 32 32 31 26
33 34 35 36 38 38 42 42 41 39 36 33 31 28 26 22 22 20 19 16 15 14 14 14 13 16 17 18 20 20 20 25 26 28 33 32 31 27
34 35 35 36 36 41 42 41 38 37 34 32 28 25 24 21 20 19 18 18 15 13 11 11 9 9 11 16 20 21 21 20 20 24 22 21 23 15
34 34 35 35 39 41 39 36 34 34 32 31 27 27 26 23 19 16 14 15 15 13 11 10 11 11 15 16 17 20 22 20 19 17 15 15 13 9
Wind_Direction
314 311 309 307 302 297 299 296 296 301 300 302 305 303 302 297 296 293 290 289 291 294 297 288 282 283 280 280 282 278 274 272 272 268 285 278 267 241
314 309 307 306 299 299 300 297 293 290 292 294 298 301 304 301 294 293 289 290 296 294 296 296 289 280 280 280 281 277 272 272 271 269 261 261 269 255
312 309 307 305 301 300 300 298 295 294 292 291 295 300 302 301 300 298 295 294 294 294 292 290 291 288 281 279 276 278 277 273 269 268 261 255 254 262
311 309 307 306 303 303 300 298 297 297 294 294 296 299 299 301 302 301 300 297 295 293 293 289 289 287 285 282 278 276 272 271 268 266 263 258 251 254
310 309 308 308 305 304 304 303 301 299 298 297 296 298 299 301 302 300 299 296 295 296 294 290 286 282 284 281 281 277 274 269 266 266 263 261 252 249
309 308 308 307 305 306 305 304 303 302 302 298 295 298 300 304 303 301 301 299 299 297 293 293 290 289 284 281 281 283 275 270 266 263 261 260 256 252
311 309 308 306 305 305 306 306 305 305 300 299 298 303 305 306 302 301 300 301 299 296 296 293 294 291 290 283 275 295 278 275 264 252 253 253 248 253
312 312 310 310 309 308 307 307 303 301 301 300 303 304 302 299 300 300 299 297 296 298 296 292 294 288 292 286 284 280 277 278 274 255 248 242 243 243
312 312 312 312 311 314 312 309 303 303 302 304 304 301 299 299 299 297 296 295 290 292 296 293 291 287 291 290 286 284 280 274 266 263 246 243 245 236
313 313 312 311 314 314 312 308 307 309 308 305 301 297 297 301 298 296 295 294 293 293 293 285 292 293 295 291 287 283 275 261 261 259 255 248 243 243
315 314 314 313 313 315 313 317 316 310 310 307 304 301 298 296 295 295 295 294 294 292 297 286 295 292 297 291 286 287 280 259 263 259 255 253 245 244
316 317 316 314 315 317 317 316 314 312 313 314 309 306 305 305 304 298 298 293 294 293 298 289 298 297 297 295 284 288 296 270 265 255 260 255 247 241
319 317 318 317 317 317 315 313 311 312 311 309 310 314 316 313 310 306 305 299 293 288 294 291 294 290 277 286 292 292 289 277 269 274 253 237 222 216
317 316 316 319 318 317 316 315 315 314 314 314 314 312 312 312 314 311 305 300 296 293 299 296 287 279 279 282 286 292 294 295 275 229 204 176 185 186
316 316 316 318 318 320 321 319 321 321 319 316 314 314 315 317 318 316 314 314 312 308 302 289 281 281 279 274 275 279 287 288 159 179 165 162 161 158
321 321 320 318 320 320 323 326 326 323 319 316 315 317 321 320 318 320 318 321 314 315 309 304 302 299 287 273 264 256 266 168 149 161 157 147 146 149
322 321 323 323 324 326 326 327 326 325 324 325 323 324 324 324 327 339 333 327 331 331 331 323 321 49 346 245 228 227 205 151 148 151 148 135 135 144
323 324 323 325 324 325 326 325 325 325 327 329 329 329 331 340 343 351 356 358 360 358 1 4 354 4 39 84 132 141 149 142 141 139 136 129 125 132
325 323 324 325 325 325 326 323 322 327 333 334 333 342 349 347 352 355 355 355 352 355 1 10 31 52 66 71 84 132 136 138 139 134 135 133 128 125
328 325 325 326 326 326 325 324 326 332 339 338 346 351 351 344 348 350 355 356 355 2 11 26 50 69 80 76 83 98 130 136 140 136 133 131 129 126
328 327 328 328 327 327 327 327 330 337 337 346 349 351 346 344 348 352 353 355 356 4 14 31 51 90 92 98 97 101 112 130 136 138 138 135 133 129
329 329 330 329 329 333 333 335 340 345 348 349 348 347 340 343 338 348 358 360 4 7 19 36 62 94 102 113 104 108 108 109 125 136 142 152 147 147
328 332 331 331 338 340 340 341 345 348 350 350 346 339 343 344 350 358 7 14 17 26 46 60 78 99 103 110 113 114 117 120 125 130 129 152 158 160